カタログに戻る

FENGYUN 1C DEB

運用中PO
NORAD 30016·DEBRIS·🇨🇳 China

打ち上げ May 10, 1999 から Taiyuan Satellite Launch Center

Loading…

次のパス (今後24時間)

TLE

最新Source: Space-Track

元期: Sep 14, 2026, 09:25 UTC

1 30016U 99025MR  26257.39263461  .00006567  00000-0  76521-3 0  9999
2 30016  98.8845 304.9080 0039479 245.5189 126.7144 14.85081791 35382

AllMySatでFENGYUN 1C DEBをリアルタイム追跡

Download on the App Store